Regional Weather Roundup
Issued by NWS Newport/Morehead, NC

Current Version | Previous Version | Graphics & Text | Print | Product List | Glossary On
Versions: 1 2 3 4 5 6 7 8 9 10 11 12 13 14 15 16 17 18 19 20 21 22 23 24 25 26 27 28 29 30 31 32 33 34 35 36 37 38 39 40 41 42 43 44 45 46 47 48 49 50
000 ASUS42 KMHX 300613 RWRMHX WEATHER ROUNDUP FOR EASTERN NORTH CAROLINA NATIONAL WEATHER SERVICE NEWPORT/MOREHEAD CITY NC 200 AM EDT SUN AUG 30 2015 NOTE: "FAIR" INDICATES FEW OR NO CLOUDS BELOW 12,000 FEET WITH NO SIGNIFICANT WEATHER AND/OR OBSTRUCTIONS TO VISIBILITY NCZ015>017-031-032-045>047-102-103-300700- NORTH COAST CITY SKY/WX TMP DP RH WIND PRES REMARKS EDENTON FAIR 67 63 88 CALM 30.12F ELIZABETH CITY MOCLDY 69 66 90 CALM 30.11F KITTY HAWK FAIR 76 69 81 N5 30.09F MANTEO FAIR 74 71 88 N6 30.10F $$ NCZ045>047-081-094-103-104-300700- CENTRAL COAST CITY SKY/WX TMP DP RH WIND PRES REMARKS FRISCO FAIR 76 73 91 N6 30.09F SWANQUARTER NOT AVBL $$ NCZ095-097-098-100-101-300700- SOUTHERN COAST CITY SKY/WX TMP DP RH WIND PRES REMARKS BEAUFORT FAIR 72 69 90 N3 30.11F CEDAR ISLAND NOT AVBL JACKSONVILLE FAIR 69 65 86 CALM 30.12F PINEY ISLAND FAIR N/A N/A N/A N6 30.10F WILMINGTON FAIR 72 65 78 CALM 30.12F $$ NCZ011>013-027>030-043-044-078>080-089-090>093-098-300700- COASTAL PLAIN CITY SKY/WX TMP DP RH WIND PRES REMARKS AHOSKIE FAIR 63 61 94 CALM 30.15S CLINTON FAIR 69 66 88 CALM 30.14F ELIZABETHTOWN FAIR 71 63 77 CALM 30.13F GOLDSBORO MOCLDY 70 64 83 CALM 30.13F GREENVILLE FAIR 68 68 100 CALM 30.15F HAVELOCK FAIR 73 67 81 N3 30.13F KENANSVILLE N/A 67 66 94 CALM 30.14F KINSTON FAIR 67 65 94 CALM 30.14F NEW BERN FAIR 68 65 90 CALM 30.14F RICHLANDS FAIR 66 61 82 CALM 30.13F ROCKY MOUNT FAIR 68 63 84 CALM 30.15F WASHINGTON FAIR 66 64 95 CALM 30.13F WHITEVILLE FAIR 70 67 89 CALM 30.13S $$ AMZ130-135-150-152-154-156-158-170-250-252-270-ANZ085-086-088-633-658-670-300700- MARINE OBSERVATIONS STATION/POSITION TIME TEMP WIND PRES WAVE SWELL AIR SEA DIR/SP/G HT/PER HT/PER (UTC) (F) (DEG/KT/KT) (MB) (FT/S) (FT/S) CHESAPEAKE LIGHT 0600 77 70/ 5/ 6 1020.4 64 E VA BEACH 0550 78 78 50/ 12/ 14 1019.2 4/ 9 3/ 9 DUCK NOT AVBL 2 E DUCK 0511 78 N/A 4/11 2/11 OREGON INLET NOT AVBL 13E OREGON INLT 0600 78 N/A 5/11 3/11 HATTERAS CG NOT AVBL DIAMOND BUOY 0550 79 82 360/ 10/ 10 1018.6 4/11 3/11 CAPE LOOKOUT 0600 75 350/ 6/ 6 1019.4 BEAUFORT LAB NOT AVBL 30 SE NEW RVR IN 0508 79 81 30/ 8/ 12 1020.4 30 SE NEW RVR IN 0525 81 N/A 5/11 2/11 27 SE WRIGHTSVLE 0500 76 82 70/ 6/ 8 N/A 5 SE WRIGHTSVLE 0508 80 82 80/ 8/ 12 1020.2 225 S CAPE HAT 0550 83 84 220/ 8/ 10 1020.3 5/ 9 5/ 9 41 SE CHARLESTON 0550 80 85 60/ 8/ 10 1019.0 5/11 5/11 $$

USA.gov is the U.S. government's official web portal to all federal, state and local government web resources and services.